Location: Newark
(20.5800°N, 87.1197°W)
Time: 08:45:23
(UTC+00:00)

N. Korean satellite - Pass Details

Date: 12 August 2020
Orbit: 455 x 503 km, 97.2° (Epoch: 22 September)

Event Time Altitude Azimuth Distance (km) Brightness Sun altitude
Rises 10:31:14 0° 32° (NNE) 2,538 11.1 -13.2°
Reaches altitude 10° 10:33:41 10° 49° (NE) 1,666 10.5 -12.7°
Maximum altitude 10:36:22 20° 98° (E) 1,183 9.4 -12.1°
Drops below altitude 10° 10:39:05 10° 147° (SSE) 1,681 9.5 -11.5°
Sets 10:41:34 0° 164° (SSE) 2,568 10.2 -10.9°
